This demonstration page uses our WeatherBlox Daily Observations layout. Learn more.

38.89511, -77.03637

Hourly Observations for December 22, 2016

Temp ( °F °C ) Dew Point ( °F °C ) Humidity (%) Winds ( mph kmh ) Pressure ( in mb ) Visibility ( mi km ) Precip ( " mm )
12:52 am 00:52 Cloudy 37 2.8 25 -3.9 62 62 S 7 11 30.14 1021 10 16.0934 0 0
1:52 am 01:52 Cloudy 41 5 25 -3.9 53 53 S 13 20 30.1 1019 10 16.0934 0 0
2:52 am 02:52 Cloudy 41 5 27 -2.8 57 57 S 13 20 30.08 1019 10 16.0934 0 0
3:52 am 03:52 Cloudy 41 5 28 -2.2 60 60 S 15 24 30.06 1018 10 16.0934 0 0
4:52 am 04:52 Cloudy 41 5 28 -2.2 60 60 S 9 15 30.03 1017 10 16.0934 0 0
5:52 am 05:52 Cloudy 41 5 29 -1.7 62 62 S 3 6 30.02 1017 10 16.0934 0 0
6:52 am 06:52 Mostly Cloudy 40 4.4 29 -1.7 65 65 S 8 13 30.01 1016 10 16.0934 0 0
7:52 am 07:52 Partly Cloudy 42 5.6 26 -3.3 53 53 SSW 6 9 30.03 1017 10 16.0934 0 0
8:52 am 08:52 Partly Cloudy 44 6.7 29 -1.7 55 55 S 5 7 30.03 1017 10 16.0934 0 0
9:52 am 09:52 Partly Cloudy 44 6.7 28 -2.2 53 53 S 7 11 30.02 1017 10 16.0934 0 0
10:52 am 10:52 Mostly Cloudy 47 8.3 28 -2.2 48 48 SSE 5 7 30.02 1017 10 16.0934 0 0
11:52 am 11:52 Mostly Sunny 50 10 27 -2.8 41 41 ENE 3 6 30 1016 10 16.0934 0 0
12:52 pm 12:52 Mostly Sunny 57 13.9 26 -3.3 30 30 VRB 3 6 29.98 1015 10 16.0934 0 0
1:52 pm 13:52 Mostly Sunny 58 14.4 24 -4.4 27 27 WNW 9 15 29.99 1016 10 16.0934 0 0
2:52 pm 14:52 Mostly Sunny 58 14.4 24 -4.4 27 27 NW 16 26 30.02 1017 10 16.0934 0 0
3:31 pm 15:31 Mostly Sunny 56 13.3 24 -4.4 29 29 NNW 22 35 30.06 1018 10 16.0934 0 0
3:52 pm 15:52 Mostly Sunny 55 12.8 25 -3.9 31 31 WNW 16 26 30.07 1018 10 16.0934 0 0
4:52 pm 16:52 Mostly Clear 47 8.3 26 -3.3 44 44 NNW 25 41 30.16 1021 10 16.0934 0 0
5:52 pm 17:52 Mostly Cloudy 45 7.2 25 -3.9 46 46 NNW 13 20 30.22 1023 10 16.0934 0 0
6:52 pm 18:52 Mostly Cloudy 45 7.2 26 -3.3 48 48 NNW 17 28 30.25 1024 10 16.0934 0 0
7:52 pm 19:52 Mostly Cloudy 45 7.2 25 -3.9 46 46 NNW 18 30 30.28 1025 10 16.0934 0 0
8:52 pm 20:52 Clear 43 6.1 25 -3.9 49 49 NW 13 20 30.31 1026 10 16.0934 0 0
9:52 pm 21:52 Clear 41 5 25 -3.9 53 53 NW 10 17 30.32 1027 10 16.0934 0 0
10:52 pm 22:52 Clear 40 4.4 24 -4.4 53 53 NW 7 11 30.34 1027 10 16.0934 0 0
11:52 pm 23:52 Clear 40 4.4 24 -4.4 53 53 WNW 5 7 30.36 1028 10 16.0934 0 0

Powered by AerisWeather